sat.trackr.live / text

‹ back to catalog

STARLINK-35204

NORAD 65694 · 2025-212U

PAYLOAD ACTIVE UNKNOWN

§ Identity

Operator
Country
US
Launch date
2025-09-21
Launch site
AFETR
Launch vehicle
Mass (kg)
RCS (m²)

Purposes: comms

External: N2YO · Heavens-Above · Gunter

§ Orbital elements

Epoch: 2026-05-24T22:06:18.061632Z

Period
94.31 min
Inclination
53.1602°
Eccentricity
0.0022856
Mean motion
15.26813288 rev/d
Perigee alt
469.7 km
Apogee alt
501.0 km
Semi-major
6,863.5 km
B*
-1.2744e-1
RAAN
351.6776°
Arg perigee
120.4386°
Mean anomaly
239.8875°
Rev number
3,892

§ Raw data

STARLINK-352041 65694U 25212U   26144.92104238 -.03022885  00000+0 -12744+0 0  99942 65694  53.1602 351.6776 0022856 120.4386 239.8875 15.26813288 38929

JSON: /api/v1/satellites/65694 · /tle

For live sub-satellite position, see the globe view (requires WebGL).

§ Visibility from observer

Set your observer location to see the next 7 days of passes ≥ 10°. The values pass through the URL so the page stays shareable.

No JS? Fill the form by hand. The geolocation button needs JavaScript.